Powrót do katalogu

SPACEMOBILE-005

AktywnyŁącznośćVLEO
NORAD 61046·PAYLOAD·🇺🇸 United States

Wystrzelony Sep 12, 2024 z Cape Canaveral Space Force Station

Loading…

Następne Przeloty (najbliższe 24 godziny)

TLE

ŚwieżeSource: CelesTrak SupGP

Epoka: Sep 15, 2026, 05:13 UTC

1 61046C 24163B   26258.21799052 -.00019529  00000+0 -88289-3 0  2584
2 61046  52.9735 255.4857 0009171  28.8178 198.9914 15.20380850    12

Śledź SPACEMOBILE-005 w czasie rzeczywistym z AllMySat

Download on the App Store